This demonstration page uses our WeatherBlox Daily Observations layout. Learn more.

Left ArrowRight Arrow

Hourly Observations for May 10, 2022

Temp ( °F °C ) Dew Point ( °F °C ) Humidity (%) Winds ( mph kmh ) Pressure ( in mb ) Visibility ( mi km ) Precip ( " mm )
12:56 am 00:56 Mostly Cloudy 72 22.3 48 8.8 42 42 NNE 6 9 29.77 1008 10 16 0.00 0.00
1:56 am 01:56 Cloudy 73 22.7 47 8.4 40 40 NE 16 26 29.75 1007 10 16 0.00 0.00
2:56 am 02:56 Cloudy 71 21.9 49 9.4 45 45 NNE 12 19 29.76 1008 10 16 0.00 0.00
3:56 am 03:56 Mostly Cloudy 72 22.2 48 9 43 43 NNE 17 28 29.76 1008 10 16 0.00 0.00
4:56 am 04:56 Mostly Cloudy 71 21.8 48 9 44 44 ENE 13 20 29.77 1008 10 16 0.00 0.00
5:56 am 05:56 Partly Cloudy 69 20.8 49 9.7 49 49 ENE 15 24 29.77 1008 10 16 0.00 0.00
6:56 am 06:56 Mostly Cloudy 68 20.2 51 10.3 53 53 NE 12 19 29.80 1009 10 16 0.00 0.00
7:56 am 07:56 Mostly Sunny 69 20.3 52 11 55 55 ENE 10 17 29.82 1010 10 16 0.00 0.00
8:56 am 08:56 undefined 70 21.2 54 12.3 57 57 NNE 7 11 29.85 1011 10 16 0.00 0.00
9:56 am 09:56 Mostly Cloudy 73 23 55 13 53 53 VRB 6 9 29.85 1011 10 16 0.00 0.00
10:56 am 10:56 undefined 76 24.6 60 15.5 57 57 NNE 8 13 29.88 1012 10 16 0.00 0.00
11:56 am 11:56 Partly Cloudy 80 26.5 62 16.7 55 55 N 7 11 29.89 1012 10 16 0.00 0.00
12:56 pm 12:56 Mostly Cloudy 83 28.6 64 17.7 52 52 NNW 9 15 29.90 1012 8 13 0.00 0.00
1:56 pm 13:56 Mostly Sunny 85 29.2 65 18.3 52 52 NNW 9 15 29.90 1012 10 16 0.00 0.00
2:56 pm 14:56 undefined 85 29.6 64 17.7 49 49 N 8 13 29.90 1012 8 13 0.00 0.00
3:56 pm 15:56 Partly Cloudy 87 30.6 64 17.6 46 46 N 10 17 29.89 1012 8 13 0.00 0.00
4:56 pm 16:56 Mostly Sunny 87 30.7 63 17 44 44 N 10 17 29.89 1012 10 16 0.00 0.00
5:56 pm 17:56 Sunny 87 30.5 62 16.8 44 44 N 9 15 29.89 1012 9 14 0.00 0.00
6:56 pm 18:56 Sunny 87 30.3 66 18.7 50 50 NNE 8 13 29.89 1012 10 16 0.00 0.00
7:56 pm 19:56 Sunny 84 28.7 64 17.5 51 51 NNE 8 13 29.90 1013 10 16 0.00 0.00
8:56 pm 20:56 Clear 81 27.4 62 16.9 53 53 NNE 12 19 29.90 1013 10 16 0.00 0.00
9:56 pm 21:56 Clear 80 26.4 61 16.3 54 54 NNE 12 19 29.91 1013 10 16 0.00 0.00
10:56 pm 22:56 Clear 78 25.4 64 17.8 63 63 NNE 7 11 29.93 1013 10 16 0.00 0.00
11:56 pm 23:56 Clear 78 25.4 67 19.7 71 71 ESE 7 11 29.94 1014 10 16 0.00 0.00

Powered by AerisWeather